Ann Arbor, MI

7:58 PM EDT on August 27, 2016 (GMT -0400)
Ann Arbor Municipal

Weather History for KARB - April, 2014

Change the Weather History Date:

Wednesday, April 9, 2014

  Actual Average Record
Temperature  
Mean Temperature 46 °F -  
Max Temperature 57 °F 55 °F 66 °F (2005)
Min Temperature 36 °F 33 °F 21 °F (2016)
Degree Days  
Heating Degree Days 18    
Moisture  
Dew Point 27 °F    
Average Humidity 48    
Maximum Humidity 67    
Minimum Humidity 24    
Precipitation  
Precipitation 0.00 in - - ()
Sea Level Pressure  
Sea Level Pressure 29.94 in    
Wind  
Wind Speed 9 mph (NW)    
Max Wind Speed 16 mph    
Max Gust Speed 20 mph    
Visibility 10 miles    
Events      
Averages and records for this station are not official NWS values.
T = Trace of Precipitation, MM = Missing Value Source: NWS Daily Summary

Daily Weather History Graph

Daily Weather History Graph

Search for Another Location

Airport or City:

Trip Planner

Search our weather history database for the weather conditions in past years. The results will help you decide how hot, cold, wet, or windy it might be!

Date:

Astronomy

Apr. 09, 2014 Rise Set
Actual Time 7:04 AM EDT 8:09 PM EDT
Civil Twilight 6:35 AM EDT 8:38 PM EDT
Nautical Twilight 6:01 AM EDT 9:12 PM EDT
Astronomical Twilight 5:25 AM EDT 9:48 PM EDT
Moon 2:51 PM EDT (4/9) 3:58 AM EDT (4/9)
Length of Visible Light 14h 03m
Length of Day
13h 05m
Waxing Gibbous, 71% of the Moon is Illuminated
Apr 9
Waxing Gibbous
Apr 15
Full
Apr 22
Last Quarter
Apr 29
New
May 6
First Quarter

Hourly Weather History & Observations

Time (EDT) Temp. Windchill Dew Point Humidity Pressure Visibility Wind Dir Wind Speed Gust Speed Precip Events Conditions
12:53 AM 46.9 °F - 34.0 °F 61% 29.83 in 10.0 mi NNW 11.5 mph - N/A   Clear
1:53 AM 45.0 °F 40.6 °F 33.1 °F 63% 29.84 in 10.0 mi NNW 8.1 mph - N/A   Clear
2:53 AM 43.0 °F 37.7 °F 32.0 °F 65% 29.86 in 10.0 mi NNW 9.2 mph - N/A   Scattered Clouds
3:53 AM 41.0 °F 34.7 °F 30.9 °F 67% 29.87 in 10.0 mi NNW 10.4 mph - N/A   Clear
4:53 AM 39.0 °F 31.8 °F 28.9 °F 67% 29.89 in 10.0 mi NNW 11.5 mph - N/A   Clear
5:53 AM 37.0 °F 31.6 °F 27.0 °F 67% 29.91 in 10.0 mi NNW 6.9 mph - N/A   Clear
6:53 AM 36.0 °F 29.6 °F 26.1 °F 67% 29.93 in 10.0 mi NNW 8.1 mph - N/A   Clear
7:53 AM 37.0 °F 31.0 °F 25.0 °F 62% 29.96 in 10.0 mi NNW 8.1 mph - N/A   Clear
8:53 AM 39.9 °F 33.9 °F 24.1 °F 53% 29.99 in 10.0 mi North 9.2 mph - N/A   Clear
9:53 AM 44.1 °F 40.1 °F 25.0 °F 47% 29.99 in 10.0 mi NW 6.9 mph - N/A   Clear
10:53 AM 46.9 °F - 26.1 °F 44% 30.01 in 10.0 mi North 6.9 mph 16.1 mph N/A   Clear
11:53 AM 50.0 °F - 21.9 °F 33% 30.01 in 10.0 mi NNW 10.4 mph - N/A   Clear
12:53 PM 52.0 °F - 19.9 °F 28% 30.01 in 10.0 mi West 8.1 mph 16.1 mph N/A   Clear
1:53 PM 55.0 °F - 19.0 °F 24% 30.00 in 10.0 mi NNW 8.1 mph - N/A   Clear
2:53 PM 55.0 °F - 21.0 °F 27% 30.00 in 10.0 mi NW 8.1 mph 19.6 mph N/A   Clear
3:53 PM 55.9 °F - 21.9 °F 27% 29.97 in 10.0 mi West 12.7 mph 19.6 mph N/A   Clear
4:53 PM 57.0 °F - 21.0 °F 25% 29.96 in 10.0 mi WNW 6.9 mph - N/A   Clear
5:53 PM 57.0 °F - 25.0 °F 29% 29.95 in 10.0 mi WSW 16.1 mph - N/A   Scattered Clouds
6:53 PM 55.9 °F - 26.1 °F 32% 29.96 in 10.0 mi WSW 15.0 mph - N/A   Clear
7:53 PM 52.0 °F - 28.0 °F 40% 29.95 in 10.0 mi WSW 9.2 mph - N/A   Clear
8:53 PM 48.9 °F - 28.9 °F 46% 29.95 in 10.0 mi SSW 5.8 mph - N/A   Clear
9:53 PM 46.9 °F - 30.0 °F 52% 29.94 in 10.0 mi South 5.8 mph - N/A   Clear
10:53 PM 46.9 °F - 32.0 °F 56% 29.93 in 10.0 mi SSW 8.1 mph - N/A   Clear
11:53 PM 44.1 °F 40.1 °F 33.1 °F 65% 29.93 in 10.0 mi SSW 6.9 mph - N/A   Clear